Location: Songkhla
(7.2000°N, 100.6000°E)
Time: 20:41:33
(UTC+07:00)

ISS - Pass Details

Date: 23 April 2026
Orbit: 414 x 424 km, 51.6° (Epoch: 19 May)

Event Time Altitude Azimuth Distance (km) Brightness Sun altitude
Rises 11:39:49 0° 331° (NNW) 2,366 0.1 79.6°
Reaches altitude 10° 11:41:57 10° 336° (NNW) 1,503 -0.8 80.1°
Maximum altitude 11:45:15 53° 54° (NE) 524 -1.9 80.7°
Drops below altitude 10° 11:48:33 10° 132° (SE) 1,504 -0.8 81.4°
Sets 11:50:41 0° 137° (SE) 2,368 0.1 81.8°
